• Join FlightAware (Why Join?)
  • Login
  • US Flag 
07:26PM EDT


 

Airport Tracker/Info


-or-


 

Live Flight TrackerFlight Track Log ✈ FLG3429 ✈ 20-Jun-2013 ✈ KPSC - KMSP

Flight Track Log - Related Links

Times and Time Zones

All times are in EDT time to prevent confusion due to time zone crossing. See the FLG3429 flight status page for this flight to view local times or setup timezone preferences in your user account.

Time Position Orientation Groundspeed Altitude Reporting Facility
EDT Latitude Longitude Course Direction KTS MPH feet Rate Location/Type
04:13PM 46.2303 -119.1725 84° East 156 180 2,600  Level Seattle Center
04:14PM 46.1869 -119.1506 161° South 235 270 4,300 1,980 Climbing Seattle Center
04:15PM 46.2834 -118.6122 90° East  Level FlightAware Approximate
04:15PM 46.1686 -119.0450 104° East 262 302 6,700  Level Seattle Center
04:16PM 46.2887 -118.4426 84° East  Level FlightAware Approximate
04:16PM 46.1481 -118.9336 105° East 277 319 9,200  Level Seattle Center
04:17PM 46.3007 -118.2735 84° East  Level FlightAware Approximate
04:17PM 46.1603 -118.8119 82° East 302 348 11,600  Level Seattle Center
04:18PM 46.3128 -118.1018 84° East  Level FlightAware Approximate
04:18PM 46.1764 -118.6872 79° East 312 359 13,800  Level Seattle Center
04:19PM 46.1956 -118.5478 79° East 341 392 14,900 1,560 Climbing Seattle Center
04:20PM 46.2128 -118.3847 81° East 375 432 17,000 1,860 Climbing Seattle Center
04:21PM 46.2311 -118.2308 80° East 389 448 18,800 1,740 Climbing Seattle Center
04:22PM 46.2497 -118.0742 80° East 397 457 20,600 1,560 Climbing Seattle Center
04:23PM 46.2681 -117.9142 81° East 403 464 22,000 1,440 Climbing Seattle Center
04:24PM 46.2869 -117.7500 80° East 413 475 23,600 1,560 Climbing Seattle Center
04:25PM 46.3053 -117.5844 81° East 417 480 25,200 1,440 Climbing Seattle Center
04:26PM 46.3269 -117.3825 81° East 425 489 26,600 1,260 Climbing Seattle Center
04:27PM 46.3453 -117.2119 81° East 429 494 27,800 1,260 Climbing Seattle Center
04:28PM 46.3636 -117.0406 81° East 433 498 29,200 1,320 Climbing Seattle Center
04:29PM 46.3828 -116.8725 81° East 428 493 30,600 1,320 Climbing Seattle Center
04:30PM 46.4133 -116.7108 75° East 419 482 31,900 1,020 Climbing Seattle Center
04:31PM 46.4467 -116.5469 73° East 425 489 32,700 840 Climbing Seattle Center
04:32PM 46.4803 -116.3814 74° East 428 493 33,700 960 Climbing Seattle Center
04:33PM 46.5111 -116.2214 74° East 418 481 34,700 600 Climbing Seattle Center
04:34PM 46.5425 -116.0622 74° East 412 474 35,000 120 Climbing Seattle Center
04:35PM 46.5808 -115.8631 74° East 426 490 35,000  Level Seattle Center
04:36PM 46.6142 -115.6906 74° East 441 507 35,000  Level Seattle Center
04:37PM 46.6522 -115.4919 74° East 438 504 35,000  Level Salt Lake Center
04:38PM 46.6778 -115.3503 75° East 438 504 35,000  Level Seattle Center
04:39PM 46.7092 -115.1858 74° East 437 503 35,000  Level Seattle Center
04:40PM 46.7414 -115.0153 75° East 437 503 35,000  Level Seattle Center
04:41PM 46.7731 -114.8406 75° East 445 512 35,000  Level Seattle Center
04:42PM 46.8036 -114.6689 75° East 442 509 35,000  Level Seattle Center
04:43PM 46.8414 -114.4592 75° East 447 514 35,000  Level Seattle Center
04:44PM 46.8728 -114.2842 75° East 448 516 35,000  Level Seattle Center
04:45PM 46.9036 -114.1083 76° East 450 518 35,000 300 Level Seattle Center
04:46PM 46.9156 -113.9264 84° East 452 520 35,700 540 Climbing Seattle Center
04:47PM 46.9244 -113.7469 86° East 447 514 36,200 480 Climbing Seattle Center
04:49PM 46.9367 -113.5011 86° East 437 503 36,900 300 Climbing Salt Lake Center
04:50PM 46.9453 -113.3214 86° East 444 511 37,000  Climbing Salt Lake Center
04:51PM 46.9539 -113.1386 86° East 454 522 37,000  Level Salt Lake Center
04:52PM 46.9619 -112.9161 87° East 460 529 37,000  Level Salt Lake Center
04:53PM 46.9700 -112.7439 86° East 464 534 37,000  Level Salt Lake Center
04:54PM 46.9778 -112.5567 86° East 462 532 37,000  Level Salt Lake Center
04:55PM 46.9864 -112.3292 87° East 468 539 37,000  Level Salt Lake Center
04:56PM 46.9928 -112.1400 87° East 469 540 37,000  Level Salt Lake Center
04:57PM 46.9992 -111.9522 87° East 466 536 37,000  Level Salt Lake Center
04:58PM 47.0056 -111.7675 87° East 461 531 37,000  Level Salt Lake Center
04:59PM 47.0117 -111.5867 87° East 454 522 37,000  Level Salt Lake Center
05:00PM 47.0164 -111.4042 88° East 452 520 37,000  Level Salt Lake Center
05:01PM 47.0222 -111.1833 88° East 455 524 37,000  Level Salt Lake Center
05:02PM 47.0275 -110.9969 88° East 459 528 37,000  Level Salt Lake Center
05:03PM 47.0319 -110.8086 88° East 465 535 37,000  Level Salt Lake Center
05:04PM 47.0361 -110.6181 88° East 470 541 37,000  Level Salt Lake Center
05:05PM 47.0400 -110.4283 88° East 469 540 37,000  Level Salt Lake Center
05:06PM 47.0439 -110.2022 88° East 468 539 37,000  Level Salt Lake Center
05:07PM 47.0458 -110.0153 89° East 463 533 37,000 -60 Level Salt Lake Center
05:08PM 47.0486 -109.8264 89° East 464 534 36,900  Descending Salt Lake Center
05:09PM 47.0514 -109.6400 89° East 462 532 37,000  Climbing Salt Lake Center
05:11PM 47.0272 -109.4597 101° East 454 522 36,900  Descending Salt Lake Center
05:12PM 46.9961 -109.2783 104° East 459 528 37,000  Climbing Salt Lake Center
05:13PM 46.9578 -109.0531 104° East 474 545 37,000 -60 Level Salt Lake Center
05:14PM 46.9272 -108.8797 104° East 485 558 36,900  Descending Salt Lake Center
05:15PM 46.8875 -108.6558 104° East 480 552 37,000  Climbing Salt Lake Center
05:16PM 46.8572 -108.4744 104° East 459 528 37,000 -60 Level Salt Lake Center
05:17PM 46.8253 -108.2989 105° East 461 531 36,900  Descending Salt Lake Center
05:18PM 46.7950 -108.1206 104° East 456 525 37,000  Climbing Salt Lake Center
05:19PM 46.7619 -107.9403 105° East 459 528 37,000  Level Salt Lake Center
05:20PM 46.7317 -107.7639 104° East 455 524 37,000  Level Salt Lake Center
05:21PM 46.6911 -107.5514 105° East 454 522 37,000  Level Salt Lake Center
05:22PM 46.6578 -107.3717 105° East 459 528 37,000  Level Salt Lake Center
05:23PM 46.6233 -107.1922 106° East 462 532 37,000  Level Salt Lake Center
05:24PM 46.5903 -107.0133 105° East 461 531 37,000 -60 Level Salt Lake Center
05:25PM 46.5564 -106.8347 105° East 461 531 36,900  Descending Salt Lake Center
05:26PM 46.5200 -106.6553 106° East 462 532 37,000  Climbing Salt Lake Center
05:27PM 46.4761 -106.4381 106° East 465 535 37,000  Level Salt Lake Center
05:28PM 46.4394 -106.2564 106° East 468 539 37,000  Level Salt Lake Center
05:29PM 46.4039 -106.0772 106° East 468 539 37,000  Level Salt Lake Center
05:30PM 46.3669 -105.9019 107° East 465 535 37,000  Level Salt Lake Center
05:31PM 46.3189 -105.7353 113° Southeast 458 527 37,000  Level Salt Lake Center
05:32PM 46.2614 -105.5342 112° Southeast 454 522 37,000  Level Salt Lake Center
05:33PM 46.2133 -105.3667 112° Southeast 454 522 37,000  Level Salt Lake Center
05:34PM 46.1650 -105.1961 112° Southeast 456 525 37,000  Level Salt Lake Center
05:35PM 46.1147 -105.0247 113° Southeast 458 527 37,000  Level Salt Lake Center
05:36PM 46.0642 -104.8531 113° Southeast 462 532 37,000  Level Salt Lake Center
05:37PM 46.0131 -104.6800 113° Southeast 466 536 37,000 -60 Level Salt Lake Center
05:38PM 45.9508 -104.4711 113° Southeast 470 541 36,900  Descending Salt Lake Center
05:39PM 45.9017 -104.3028 113° Southeast 468 539 37,000  Climbing Salt Lake Center
05:40PM 45.8511 -104.1364 114° Southeast 462 532 37,000  Level Salt Lake Center
05:42PM 45.7994 -103.9672 114° Southeast 463 533 37,000  Level Salt Lake Center
05:43PM 45.7497 -103.8008 113° Southeast 460 529 37,000  Level Salt Lake Center
05:44PM 45.6989 -103.6372 114° Southeast 456 525 37,000  Level Salt Lake Center
05:45PM 45.6386 -103.4433 114° Southeast 451 519 37,000  Level Salt Lake Center
05:46PM 45.5875 -103.2797 114° Southeast 451 519 37,000  Level Salt Lake Center
05:47PM 45.5347 -103.1147 114° Southeast 455 524 37,000  Level Salt Lake Center
05:48PM 45.4811 -102.9464 114° Southeast 462 532 37,000  Level Salt Lake Center
05:49PM 45.4275 -102.7747 114° Southeast 471 542 37,000 -60 Level Salt Lake Center
05:50PM 45.3606 -102.5692 115° Southeast 477 549 36,900  Descending Salt Lake Center
05:51PM 45.3047 -102.3983 115° Southeast 477 549 37,000  Climbing Salt Lake Center
05:52PM 45.2494 -102.2278 115° Southeast 478 550 37,000  Level Salt Lake Center
05:53PM 45.1950 -102.0603 115° Southeast 474 545 37,000  Level Salt Lake Center
05:54PM 45.1392 -101.8933 115° Southeast 471 542 37,000  Level Salt Lake Center
05:55PM 45.0703 -101.6736 114° Southeast 470 541 37,000  Level Minneapolis Center
05:56PM 45.0425 -101.4506 100° East 479 551 37,000  Level Minneapolis Center
05:57PM 45.0167 -101.2656 101° East 481 554 37,000  Level Minneapolis Center
05:58PM 44.9908 -101.0811 101° East 480 552 37,000  Level Minneapolis Center
05:59PM 44.9647 -100.8981 101° East 479 551 37,000  Level Minneapolis Center
06:00PM 44.9383 -100.7161 102° East 477 549 37,000  Level Minneapolis Center
06:01PM 44.9117 -100.5342 102° East 476 548 37,000  Level Minneapolis Center
06:03PM 44.8800 -100.3164 102° East 477 549 37,000  Level Minneapolis Center
06:04PM 44.8528 -100.1364 102° East 476 548 37,000  Level Minneapolis Center
06:05PM 44.8242 -99.9569 103° East 478 550 37,000  Level Minneapolis Center
06:06PM 44.7981 -99.7767 101° East 478 550 37,000  Level Minneapolis Center
06:07PM 44.7647 -99.5611 102° East 476 548 37,000  Level Minneapolis Center
06:08PM 44.7439 -99.4181 102° East 473 544 37,000  Level Minneapolis Center
06:09PM 44.7103 -99.2014 102° East 474 545 37,000  Level Minneapolis Center
06:10PM 44.6814 -99.0228 103° East 472 543 37,000  Level Minneapolis Center
06:11PM 44.6769 -98.8375 92° East 478 550 37,000  Level Minneapolis Center
06:12PM 44.7231 -98.6614 70° East 480 552 37,000  Level Minneapolis Center
06:13PM 44.8125 -98.4728 56° Northeast 483 556 37,000  Level Minneapolis Center
06:14PM 44.8767 -98.3347 57° Northeast 486 559 37,000  Level Minneapolis Center
06:15PM 44.9650 -98.1444 57° Northeast 484 557 37,000  Level Minneapolis Center
06:16PM 45.0392 -97.9842 57° Northeast 486 559 37,000  Level Minneapolis Center
06:17PM 45.1117 -97.8247 57° Northeast 483 556 37,000  Level Minneapolis Center
06:18PM 45.1836 -97.6647 57° Northeast 482 555 37,000  Level Minneapolis Center
06:20PM 45.2839 -97.4400 58° Northeast 482 555 37,000  Level Minneapolis Center
06:21PM 45.3703 -97.2475 57° Northeast 483 556 37,000  Level Minneapolis Center
06:22PM 45.4411 -97.0858 58° Northeast 482 555 37,000  Level Minneapolis Center
06:23PM 45.5117 -96.9261 58° Northeast 478 550 37,000  Level Minneapolis Center
06:24PM 45.5806 -96.7692 58° Northeast 471 542 37,000  Level Minneapolis Center
06:25PM 45.6500 -96.6094 58° Northeast 471 542 37,000  Level Minneapolis Center
06:26PM 45.7208 -96.4469 58° Northeast 475 547 37,000  Level Minneapolis Center
06:27PM 45.8042 -96.2489 59° Northeast 482 555 37,000  Level Minneapolis Center
06:28PM 45.8283 -96.0650 79° East 475 547 37,000  Level Minneapolis Center
06:29PM 45.8247 -95.8808 92° East 464 534 37,000  Level Minneapolis Center
06:30PM 45.8214 -95.6981 91° East 462 532 37,000 -540 Level Minneapolis Center
06:31PM 45.8169 -95.5494 92° East 463 533 35,900 -1,740 Descending Minneapolis Center
06:32PM 45.8119 -95.3353 92° East 453 521 33,500 -2,340 Descending Minneapolis Center
06:33PM 45.8056 -95.1133 92° East 461 531 31,100 -2,160 Descending Minneapolis Center
06:34PM 45.7997 -94.9328 93° East 465 535 29,100 -1,980 Descending Minneapolis Center
06:35PM 45.7944 -94.7586 92° East 450 518 27,100 -1,800 Descending Minneapolis Center
06:36PM 45.7897 -94.6264 93° East 432 497 25,500 -1,980 Descending Minneapolis Center
06:37PM 45.7858 -94.4297 92° East 422 486 23,100 -2,160 Descending Minneapolis Center
06:38PM 45.7806 -94.2742 93° East 411 473 21,100 -2,160 Descending Minneapolis Center
06:39PM 45.7708 -94.0986 94° East 383 441 18,700 -1,920 Descending Minneapolis Center
06:40PM 45.7531 -93.9567 100° East 379 436 17,200 -1,560 Descending Minneapolis Center
06:41PM 45.6919 -93.8511 130° Southeast 344 396 15,500 -1,620 Descending Minneapolis Center
06:42PM 45.6300 -93.7506 131° Southeast 339 390 13,900 -1,680 Descending Minneapolis Center
06:43PM 45.5728 -93.6489 129° Southeast 328 377 12,100 -1,440 Descending Minneapolis Center
06:44PM 45.4811 -93.6106 164° South 293 337 11,000 -1,260 Descending Minneapolis Center
06:45PM 45.4033 -93.5853 167° South 290 334 9,500 -1,500 Descending Minneapolis Center
06:46PM 45.3289 -93.5619 168° South 276 318 8,000 -1,260 Descending Minneapolis Center
06:47PM 45.2578 -93.5394 167° South 264 304 7,000 -540 Descending Minneapolis Center
06:48PM 45.2022 -93.5222 168° South 260 299 7,000 -900 Level Minneapolis Center
06:50PM 45.1256 -93.4711 155° Southeast 256 295 5,200 -1,380 Descending Minneapolis Center
06:51PM 45.0542 -93.4181 152° Southeast 237 273 4,200 -720 Descending Minneapolis Center
06:52PM 45.0117 -93.3875 153° Southeast 175 201 3,700 -420 Descending Minneapolis Center